Flag for Belgium Weather past 2 weeks in Antwerp, Belgium

Now
55 °F

Passing clouds.


Feels Like: 54 °F
Forecast: 47 / 60 °F
Wind: 6 mph from Southwest

Location: Antwerp / Deurne

Current Time: Oct 25, 2014 at 11:11:19 PM

Latest Report: Oct 25, 2014 at 10:20 PM


Visibility: N/A

Pressure: 30.18 "Hg

Humidity: 67%

Dew point: 45 °F

Location of AntwerpLocation

Historic Weather in Antwerp — Graph

°F

Antwerp temperature yesterday

Maximum temperature yesterday: 57 °F (at 2:20 PM)
Minimum temperature yesterday: 52 °F (at 8:50 AM)
Average temperature yesterday: 54 °F

Past Weeks' High & Low Weather Summary

 TemperatureHumidityPressure
High75 °F (Oct 18, 2:50 PM)100% (Oct 12, 6:20 AM)30.21 "Hg (Oct 12, 6:20 AM)
Low43 °F (Oct 12, 6:50 AM)56% (Oct 20, 4:50 PM)29.53 "Hg (Oct 21, 1:50 PM)
Average57 °F81%29.91 "Hg
* Reported Oct 10 9:20 PM — Oct 25 9:50 PM, Antwerp, Weather by CustomWeather, © 2014

Note: Actual official high and low records may vary slightly from our data, if they occured in-between our weather recording intervals... More about our weather records

Advertising

Antwerp weather history for previous 24 hours

 ConditionsComfort  
Time TempWeatherWind HumidityBarometerVisibility
9:50 PM
Oct 25
55 °FPassing clouds.6 mph67%30.18 "HgN/A
9:20 PM55 °FPassing clouds.6 mph67%30.18 "HgN/A
8:50 PM55 °FPassing clouds.5 mph67%30.15 "HgN/A
8:20 PM55 °FPassing clouds.6 mph67%30.15 "HgN/A
7:50 PM55 °FPassing clouds.5 mph67%30.15 "HgN/A
7:20 PM55 °FPartly sunny.3 mph67%30.15 "HgN/A
6:50 PM55 °FPartly sunny.5 mph67%30.15 "HgN/A
6:20 PM57 °FPartly sunny.3 mph59%30.15 "HgN/A
5:50 PM57 °FScattered clouds.7 mph59%30.12 "HgN/A
5:20 PM57 °FPassing clouds.8 mph63%30.12 "HgN/A
4:50 PM57 °FScattered clouds.8 mph59%30.12 "HgN/A
4:20 PM57 °FScattered clouds.10 mph63%30.12 "HgN/A
3:50 PM59 °FPassing clouds.12 mph63%30.12 "HgN/A
3:20 PM59 °FScattered clouds.12 mph72%30.09 "HgN/A
2:50 PM59 °FPartly sunny.7 mph82%30.09 "Hg6 mi
2:20 PM57 °FPartly sunny.6 mph88%30.09 "Hg5 mi
1:50 PM57 °FFog.7 mph88%30.09 "Hg3 mi
1:20 PM55 °FFog.7 mph94%30.09 "Hg1 mi
12:50 PM55 °FFog.7 mph94%30.09 "Hg2 mi
12:20 PM55 °FFog.7 mph88%30.09 "Hg2 mi
11:50 AM55 °FFog.7 mph88%30.09 "Hg2 mi
11:20 AM55 °FDrizzle. Fog.7 mph88%30.09 "Hg1 mi
10:50 AM55 °FFog.7 mph88%30.07 "Hg2 mi
10:20 AM55 °FFog.7 mph88%30.07 "Hg3 mi
9:50 AM55 °FFog.8 mph88%30.07 "Hg3 mi
9:20 AM55 °FFog.7 mph88%30.07 "Hg3 mi
8:50 AM55 °FFog.5 mph88%30.04 "Hg3 mi
8:20 AM54 °FFog.6 mph94%30.04 "Hg3 mi
7:50 AM54 °FPassing clouds.7 mph94%30.04 "Hg4 mi
7:20 AM54 °FPassing clouds.9 mph94%30.04 "Hg4 mi
6:50 AM55 °FPassing clouds.8 mph88%30.04 "Hg4 mi
6:20 AM54 °FPassing clouds.7 mph94%30.04 "Hg4 mi
5:50 AM54 °FLow clouds.8 mph94%30.01 "Hg4 mi
5:20 AM55 °FMostly cloudy.9 mph88%30.01 "Hg4 mi
4:50 AM54 °FLow clouds.8 mph94%30.01 "Hg4 mi
4:20 AM54 °FLow clouds.9 mph94%30.01 "Hg4 mi
3:50 AM54 °FLow clouds.10 mph88%30.01 "Hg4 mi
3:20 AM54 °FLow clouds.10 mph88%30.01 "Hg4 mi
2:50 AM54 °FLow clouds.9 mph88%30.01 "Hg5 mi
2:20 AM54 °FMostly cloudy.10 mph88%30.01 "Hg4 mi
1:50 AM54 °FLow clouds.10 mph88%30.01 "Hg4 mi
1:20 AM54 °FMostly cloudy.9 mph88%30.01 "HgN/A
12:50 AM54 °FMostly cloudy.9 mph88%30.01 "HgN/A
12:20 AM54 °FMostly cloudy.10 mph88%30.01 "Hg4 mi
11:50 PM
Oct 24
54 °FMostly cloudy.9 mph88%30.01 "HgN/A
11:20 PM54 °FSprinkles. Mostly cloudy.9 mph88%30.04 "Hg5 mi
Weather by CustomWeather, © 2014

See weather overviewHow to use our weather pages